sat.trackr.live / text

‹ back to catalog

CONNECTA IOT-3

NORAD 60475 · 2024-149H

PAYLOAD ACTIVE UNKNOWN

§ Identity

Operator
Country
TURK
Launch date
2024-08-16
Launch site
AFWTR
Launch vehicle
Mass (kg)
RCS (m²)

External: N2YO · Heavens-Above · Gunter

§ Orbital elements

Epoch: 2026-05-25T04:39:28.608768Z

Period
94.53 min
Inclination
97.3735°
Eccentricity
0.0002894
Mean motion
15.23344354 rev/d
Perigee alt
493.8 km
Apogee alt
497.8 km
Semi-major
6,873.9 km
B*
1.6401e-4
RAAN
221.6367°
Arg perigee
20.5853°
Mean anomaly
339.5500°
Rev number
9,830

§ Raw data

CONNECTA IOT-31 60475U 24149H   26145.19408112  .00003826  00000+0  16401-3 0  99992 60475  97.3735 221.6367 0002894  20.5853 339.5500 15.23344354 98300

JSON: /api/v1/satellites/60475 · /tle

For live sub-satellite position, see the globe view (requires WebGL).

§ Visibility from observer

Set your observer location to see the next 7 days of passes ≥ 10°. The values pass through the URL so the page stays shareable.

No JS? Fill the form by hand. The geolocation button needs JavaScript.

§ Radio — SatNOGS DB

ModeDescriptionDownlinkUplink
GMSK Mode U - GMSK 4k8 AX.25 TLM 401.530 MHz
FM S-band telemetry 2.240 GHz
LoRa Mode U - LoRa (inactive) 869.525 MHz

3 transmitters · refreshed weekly from db.satnogs.org